Location: Newark
(42.8481°N, 0.4872°E)
Time: 11:06:45
(UTC+00:00)

Explorer 7 - Pass Details

Date: 30 October 2020
Orbit: 484 x 678 km, 50.3° (Epoch: 03 December)

Event Time Altitude Azimuth Distance (km) Brightness Sun altitude
Rises 18:59:50 0° 297° (WNW) 2,622 11.4 -23.8°
Reaches altitude 10° 19:02:02 10° 292° (WNW) 1,759 10.3 -24.2°
Enters shadow 19:05:52 49° 218° (SW) 701 7.4 -24.9°
